EDT,Max TemperatureF,Mean TemperatureF,Min TemperatureF,Max Dew PointF,MeanDew PointF,Min DewpointF,Max Humidity, Mean Humidity, Min Humidity, Max Sea Level PressureIn, Mean Sea Level PressureIn, Min Sea Level PressureIn, Max VisibilityMiles, Mean VisibilityMiles, Min VisibilityMiles, Max Wind SpeedMPH, Mean Wind SpeedMPH, Max Gust SpeedMPH,PrecipitationIn, CloudCover, Events, WindDirDegrees
2013-9-1,80,74,68,69,67,66,97,80,62,29.91,29.86,29.81,10,10,10,8,2,14,0.01,4,Rain,197
2013-9-2,83,75,66,70,67,63,97,80,62,29.90,29.84,29.78,10,8,1,15,4,25,0.47,6,Rain-Thunderstorm,212
2013-9-3,77,67,57,65,61,54,100,73,46,30.06,29.94,29.85,10,6,0,9,4,15,0.00,5,Fog,295
2013-9-4,77,65,53,58,54,52,100,73,46,30.17,30.12,30.07,10,7,0,7,2,13,0.00,1,Fog,236
2013-9-5,77,67,56,63,57,49,93,70,46,30.21,30.16,30.12,10,10,10,10,3,16,0.00,2,,306
2013-9-6,75,62,48,53,50,47,100,71,41,30.27,30.22,30.16,10,8,0,8,2,12,0.00,0,Fog,22
2013-9-7,78,64,49,57,52,48,100,69,38,30.15,30.08,30.00,10,10,8,9,2,13,0.00,0,,205
2013-9-8,81,72,63,67,62,57,93,78,62,30.06,29.99,29.96,10,10,4,9,2,13,T,5,,8
2013-9-9,86,75,63,70,65,59,93,74,55,30.12,30.08,30.03,10,9,4,12,3,15,0.00,2,,150
2013-9-10,87,79,71,72,68,65,93,75,57,30.18,30.14,30.09,10,9,7,10,5,16,0.00,2,,201
2013-9-11,84,77,70,72,70,68,100,83,65,30.19,30.13,30.06,10,8,3,9,3,16,0.00,2,,203
2013-9-12,81,74,66,70,67,63,90,82,74,30.04,29.92,29.83,10,7,2,15,5,23,0.06,6,Rain,209
2013-9-13,71,61,50,64,54,47,93,67,41,30.05,29.92,29.83,10,10,7,18,5,31,0.03,7,Rain,332
2013-9-14,65,56,47,48,46,42,93,69,44,30.19,30.13,30.06,10,10,10,9,3,13,0.00,5,,351
2013-9-15,73,59,44,56,48,43,93,69,44,30.21,30.16,30.10,10,8,1,12,2,18,0.00,2,,203
2013-9-16,69,62,54,58,55,50,93,74,55,30.31,30.19,30.07,10,8,3,14,4,20,0.16,7,Fog-Rain,358
2013-9-17,73,61,48,54,48,43,100,68,35,30.40,30.34,30.27,10,6,0,10,3,15,0.00,2,Fog,40
2013-9-18,70,60,49,57,49,42,84,66,47,30.27,30.21,30.14,10,10,10,9,2,10,0.00,1,,106
2013-9-19,78,69,60,62,59,56,97,72,47,30.18,30.13,30.06,10,8,3,7,2,10,0.01,5,,194
2013-9-20,78,70,61,67,62,57,93,81,69,30.09,30.01,29.87,10,8,5,8,1,12,0.00,4,,174
2013-9-21,73,65,56,66,60,55,100,84,68,29.86,29.77,29.70,10,4,0,12,1,22,1.25,7,Fog-Rain,234
2013-9-22,65,59,52,57,53,44,100,76,52,30.04,29.90,29.83,10,6,0,13,3,18,0.00,7,Fog,322
2013-9-23,58,51,44,49,44,41,100,79,57,30.16,30.12,30.04,10,8,3,9,2,13,0.00,6,,21
2013-9-24,71,56,40,53,45,39,100,74,47,30.14,30.08,29.99,10,5,0,6,1,10,0.00,1,Fog,344
2013-9-25,76,62,47,57,50,46,100,73,46,30.00,29.95,29.89,10,8,1,7,1,12,0.00,1,,23
2013-9-26,76,63,49,52,50,46,96,66,36,30.09,30.02,29.94,10,10,10,10,2,14,0.00,0,,1
2013-9-27,76,61,46,53,50,46,100,69,38,30.20,30.16,30.10,10,9,5,8,2,10,0.00,0,,63
2013-9-28,73,63,52,53,50,48,89,68,46,30.27,30.21,30.17,10,10,10,13,4,20,0.00,1,,109
2013-9-29,77,65,53,56,51,47,83,63,43,30.17,30.11,30.03,10,10,2,12,3,14,0.00,2,,137
2013-9-30,68,61,53,61,56,51,97,85,73,30.10,30.06,30.02,10,10,6,6,1,8,0.01,7,Rain,189